| time (UTC) | temp C | wind direction | speed KPH | gust KPH | rain 1hr cm | rain 24hr cm | rain mn cm | humidity % | barometer mb |
| 20260505120504 | 6 | 231 | 1.6 | 6.4 | 0.00 | 0.00 | 0.00 | 57 | 1007.7 |
| 20260505120005 | 6 | 245 | 1.6 | 8.0 | 0.00 | 0.00 | 0.00 | 57 | 1007.4 |
| 20260505115525 | 6 | 250 | 1.6 | 8.0 | 0.00 | 0.00 | 0.00 | 57 | 1007.3 |
| 20260505115011 | 6 | 247 | 0.0 | 3.2 | 0.00 | 0.00 | 0.00 | 59 | 1007.2 |
| 20260505114504 | 6 | 243 | 0.0 | 3.2 | 0.00 | 0.00 | 0.00 | 59 | 1007.1 |
| 20260505114025 | 6 | 243 | 0.0 | 1.6 | 0.00 | 0.00 | 0.00 | 60 | 1006.8 |
| 20260505113504 | 5 | 0 | 0.0 | 0.0 | 0.00 | 0.00 | 0.00 | 60 | 1006.8 |
| 20260505113005 | 5 | 0 | 0.0 | 0.0 | 0.00 | 0.00 | 0.00 | 61 | 1006.8 |
| 20260505112504 | 5 | 0 | 0.0 | 0.0 | 0.00 | 0.00 | 0.00 | 60 | 1006.8 |
| 20260505112004 | 5 | 0 | 0.0 | 0.0 | 0.00 | 0.00 | 0.00 | 61 | 1006.8 |
| 20260505111526 | 5 | 0 | 0.0 | 0.0 | 0.00 | 0.00 | 0.00 | 60 | 1006.9 |
| 20260505111004 | 5 | 0 | 0.0 | 0.0 | 0.00 | 0.00 | 0.00 | 60 | 1006.9 |
| 20260505110525 | 5 | 243 | 0.0 | 1.6 | 0.00 | 0.00 | 0.00 | 59 | 1006.8 |
| 20260505102025 | 6 | 261 | 1.6 | 12.9 | 0.00 | 0.00 | 0.00 | 56 | 1006.3 |
| 20260505101504 | 6 | 258 | 0.0 | 6.4 | 0.00 | 0.00 | 0.00 | 56 | 1006.3 |
| 20260505101004 | 6 | 260 | 0.0 | 6.4 | 0.00 | 0.00 | 0.00 | 55 | 1006.3 |
| 20260505100504 | 6 | 260 | 0.0 | 6.4 | 0.00 | 0.00 | 0.00 | 55 | 1006.3 |
| 20260505100005 | 7 | 261 | 1.6 | 8.0 | 0.00 | 0.00 | 0.00 | 54 | 1006.2 |
| 20260505095504 | 7 | 264 | 1.6 | 8.0 | 0.00 | 0.00 | 0.00 | 53 | 1006.2 |
| 20260505095004 | 7 | 277 | 1.6 | 8.0 | 0.00 | 0.00 | 0.00 | 53 | 1006.3 |
| 20260505094504 | 7 | 275 | 1.6 | 8.0 | 0.00 | 0.00 | 0.00 | 52 | 1006.3 |
| 20260505094004 | 7 | 273 | 1.6 | 9.7 | 0.00 | 0.00 | 0.00 | 53 | 1006.3 |
| 20260505093504 | 7 | 263 | 1.6 | 11.3 | 0.00 | 0.00 | 0.00 | 52 | 1006.3 |
| 20260505093004 | 7 | 256 | 3.2 | 11.3 | 0.00 | 0.00 | 0.00 | 53 | 1006.3 |
| 20260505092504 | 7 | 262 | 3.2 | 8.0 | 0.00 | 0.00 | 0.00 | 54 | 1006.3 |
| 20260505092004 | 7 | 259 | 1.6 | 11.3 | 0.00 | 0.00 | 0.00 | 55 | 1006.3 |
| 20260505091504 | 7 | 247 | 1.6 | 11.3 | 0.00 | 0.00 | 0.00 | 55 | 1006.3 |
| 20260505091004 | 7 | 277 | 3.2 | 9.7 | 0.00 | 0.00 | 0.00 | 55 | 1006.2 |
| 20260505090525 | 7 | 285 | 3.2 | 9.7 | 0.00 | 0.00 | 0.00 | 55 | 1006.1 |
| 20260505090005 | 7 | 296 | 1.6 | 9.7 | 0.00 | 0.00 | 0.00 | 55 | 1006.1 |
| 20260505085504 | 7 | 322 | 0.0 | 3.2 | 0.00 | 0.00 | 0.00 | 55 | 1006.0 |
| 20260505085004 | 7 | 324 | 0.0 | 6.4 | 0.00 | 0.00 | 0.00 | 54 | 1006.0 |
| 20260505084504 | 7 | 325 | 0.0 | 6.4 | 0.00 | 0.00 | 0.00 | 54 | 1005.8 |
| 20260505083504 | 7 | 324 | 1.6 | 6.4 | 0.00 | 0.00 | 0.00 | 53 | 1005.4 |
| 20260505083007 | 7 | 330 | 1.6 | 6.4 | 0.00 | 0.00 | 0.00 | 53 | 1005.3 |
| 20260505082504 | 7 | 11 | 1.6 | 8.0 | 0.00 | 0.00 | 0.00 | 53 | 1005.2 |
| 20260505082004 | 7 | 13 | 1.6 | 8.0 | 0.00 | 0.00 | 0.00 | 53 | 1004.9 |
| 20260505081504 | 7 | 346 | 1.6 | 8.0 | 0.00 | 0.00 | 0.00 | 52 | 1004.8 |
| 20260505081004 | 7 | 337 | 1.6 | 8.0 | 0.00 | 0.00 | 0.00 | 52 | 1004.7 |
| 20260505080504 | 7 | 313 | 1.6 | 8.0 | 0.00 | 0.00 | 0.00 | 52 | 1004.6 |
| 20260505080025 | 7 | 307 | 1.6 | 8.0 | 0.00 | 0.00 | 0.00 | 51 | 1004.5 |
| 20260505075504 | 8 | 327 | 1.6 | 8.0 | 0.00 | 0.00 | 0.00 | 51 | 1004.5 |
| 20260505075004 | 8 | 336 | 3.2 | 12.9 | 0.00 | 0.00 | 0.00 | 50 | 1004.4 |
| 20260505074526 | 8 | 331 | 3.2 | 12.9 | 0.00 | 0.00 | 0.00 | 50 | 1004.4 |
| 20260505074004 | 8 | 331 | 3.2 | 11.3 | 0.00 | 0.00 | 0.00 | 49 | 1004.4 |
| 20260505073504 | 8 | 349 | 3.2 | 11.3 | 0.00 | 0.00 | 0.00 | 49 | 1004.5 |
| 20260505073004 | 8 | 354 | 3.2 | 11.3 | 0.00 | 0.00 | 0.00 | 49 | 1004.5 |
| 20260505072525 | 8 | 356 | 3.2 | 11.3 | 0.00 | 0.00 | 0.00 | 49 | 1004.5 |
| 20260505072004 | 8 | 344 | 3.2 | 12.9 | 0.00 | 0.00 | 0.00 | 49 | 1004.5 |
| 20260505071504 | 8 | 343 | 4.8 | 12.9 | 0.00 | 0.00 | 0.00 | 48 | 1004.5 |
| 20260505071004 | 8 | 353 | 6.4 | 12.9 | 0.00 | 0.00 | 0.00 | 48 | 1004.5 |
| 20260505070504 | 8 | 346 | 6.4 | 16.1 | 0.00 | 0.00 | 0.00 | 49 | 1004.4 |
| 20260505070007 | 8 | 349 | 4.8 | 16.1 | 0.00 | 0.00 | 0.00 | 49 | 1004.2 |
| 20260505065504 | 9 | 1 | 3.2 | 14.5 | 0.00 | 0.00 | 0.00 | 49 | 1004.2 |
| 20260505065004 | 9 | 353 | 4.8 | 19.3 | 0.00 | 0.00 | 0.00 | 49 | 1004.1 |
| 20260505064504 | 9 | 343 | 6.4 | 19.3 | 0.00 | 0.00 | 0.00 | 48 | 1004.0 |
| 20260505064004 | 9 | 359 | 6.4 | 19.3 | 0.00 | 0.00 | 0.00 | 48 | 1004.0 |
| 20260505063504 | 9 | 5 | 8.0 | 24.1 | 0.00 | 0.00 | 0.00 | 47 | 1003.9 |
| 20260505063004 | 10 | 357 | 6.4 | 24.1 | 0.00 | 0.00 | 0.00 | 47 | 1004.0 |
| 20260505062504 | 10 | 359 | 6.4 | 22.5 | 0.00 | 0.00 | 0.00 | 47 | 1004.0 |
| 20260505062004 | 10 | 348 | 6.4 | 22.5 | 0.00 | 0.00 | 0.00 | 47 | 1004.0 |
| 20260505061504 | 10 | 329 | 8.0 | 22.5 | 0.00 | 0.00 | 0.00 | 48 | 1004.0 |
| 20260505061004 | 10 | 330 | 6.4 | 22.5 | 0.00 | 0.00 | 0.00 | 49 | 1003.9 |
| 20260505060504 | 10 | 340 | 6.4 | 20.9 | 0.00 | 0.00 | 0.00 | 49 | 1003.9 |
| 20260505060005 | 10 | 335 | 6.4 | 20.9 | 0.00 | 0.00 | 0.00 | 48 | 1003.8 |
| 20260505055525 | 11 | 343 | 4.8 | 20.9 | 0.00 | 0.00 | 0.00 | 48 | 1003.7 |
| 20260505055005 | 11 | 314 | 4.8 | 19.3 | 0.00 | 0.00 | 0.00 | 49 | 1003.7 |
| 20260505054504 | 11 | 284 | 6.4 | 19.3 | 0.00 | 0.00 | 0.00 | 48 | 1003.6 |
| 20260505054025 | 11 | 273 | 8.0 | 19.3 | 0.00 | 0.00 | 0.00 | 47 | 1003.5 |
| 20260505053505 | 11 | 274 | 8.0 | 20.9 | 0.00 | 0.00 | 0.00 | 47 | 1003.4 |
| 20260505053004 | 11 | 278 | 9.7 | 22.5 | 0.00 | 0.00 | 0.00 | 46 | 1003.3 |
| 20260505052504 | 11 | 282 | 9.7 | 22.5 | 0.00 | 0.00 | 0.00 | 46 | 1003.2 |
| 20260505052004 | 11 | 280 | 9.7 | 20.9 | 0.00 | 0.00 | 0.00 | 46 | 1003.0 |
| 20260505051508 | 11 | 282 | 9.7 | 30.6 | 0.00 | 0.00 | 0.00 | 46 | 1002.9 |
| 20260505051004 | 12 | 284 | 9.7 | 30.6 | 0.00 | 0.00 | 0.00 | 46 | 1002.8 |
| 20260505050507 | 12 | 282 | 6.4 | 24.1 | 0.00 | 0.00 | 0.00 | 46 | 1002.7 |
| 20260505041504 | 13 | 280 | 8.0 | 22.5 | 0.00 | 0.00 | 0.00 | 47 | 1001.7 |
| 20260505041004 | 13 | 284 | 9.7 | 22.5 | 0.00 | 0.00 | 0.00 | 46 | 1001.7 |
| 20260505040504 | 13 | 279 | 9.7 | 22.5 | 0.00 | 0.00 | 0.00 | 46 | 1001.7 |
| 20260505040005 | 13 | 273 | 11.3 | 22.5 | 0.00 | 0.00 | 0.00 | 45 | 1001.6 |
| 20260505035504 | 13 | 266 | 9.7 | 22.5 | 0.00 | 0.00 | 0.00 | 44 | 1001.8 |
| 20260505035007 | 13 | 260 | 8.0 | 20.9 | 0.00 | 0.00 | 0.00 | 44 | 1001.6 |
| 20260505034504 | 13 | 254 | 8.0 | 20.9 | 0.00 | 0.00 | 0.00 | 43 | 1001.4 |
| 20260505034004 | 14 | 252 | 8.0 | 20.9 | 0.00 | 0.00 | 0.00 | 42 | 1001.3 |
| 20260505033507 | 14 | 251 | 8.0 | 16.1 | 0.00 | 0.00 | 0.00 | 42 | 1001.2 |
| 20260505033004 | 14 | 260 | 9.7 | 20.9 | 0.00 | 0.00 | 0.00 | 42 | 1001.0 |
| 20260505032504 | 14 | 265 | 9.7 | 20.9 | 0.00 | 0.00 | 0.00 | 41 | 1001.0 |
| 20260505032004 | 14 | 260 | 8.0 | 19.3 | 0.00 | 0.00 | 0.00 | 41 | 1000.9 |
| 20260505031525 | 14 | 259 | 8.0 | 17.7 | 0.00 | 0.00 | 0.00 | 40 | 1000.8 |
| 20260505031011 | 14 | 265 | 8.0 | 17.7 | 0.00 | 0.00 | 0.00 | 39 | 1000.9 |
| 20260505030525 | 14 | 266 | 8.0 | 16.1 | 0.00 | 0.00 | 0.00 | 39 | 1000.8 |
| 20260505030004 | 15 | 266 | 8.0 | 20.9 | 0.00 | 0.00 | 0.00 | 38 | 1000.6 |
| 20260505025504 | 15 | 267 | 9.7 | 22.5 | 0.00 | 0.00 | 0.00 | 37 | 1000.6 |
| 20260505025025 | 15 | 264 | 9.7 | 29.0 | 0.00 | 0.00 | 0.00 | 37 | 1000.4 |
| 20260505024504 | 15 | 272 | 9.7 | 29.0 | 0.00 | 0.00 | 0.00 | 35 | 1000.2 |
| 20260505024025 | 15 | 277 | 8.0 | 19.3 | 0.00 | 0.00 | 0.00 | 35 | 1000.1 |
| 20260505023525 | 15 | 270 | 6.4 | 14.5 | 0.00 | 0.00 | 0.00 | 36 | 999.9 |
| 20260505023004 | 15 | 281 | 6.4 | 22.5 | 0.00 | 0.00 | 0.00 | 36 | 999.5 |
| 20260505022504 | 15 | 289 | 6.4 | 22.5 | 0.00 | 0.00 | 0.00 | 36 | 999.1 |
| 20260505022004 | 15 | 285 | 8.0 | 17.7 | 0.00 | 0.00 | 0.00 | 38 | 999.2 |
| 20260505021525 | 16 | 279 | 8.0 | 17.7 | 0.00 | 0.00 | 0.00 | 39 | 999.1 |
| 20260505021025 | 16 | 273 | 6.4 | 17.7 | 0.00 | 0.00 | 0.00 | 40 | 999.2 |
| 20260505020504 | 16 | 280 | 6.4 | 20.9 | 0.00 | 0.00 | 0.00 | 42 | 999.0 |
| 20260505020004 | 16 | 275 | 6.4 | 20.9 | 0.00 | 0.00 | 0.00 | 43 | 998.8 |
| 20260505015504 | 16 | 263 | 8.0 | 16.1 | 0.00 | 0.00 | 0.00 | 43 | 998.7 |
| 20260505015025 | 16 | 266 | 9.7 | 19.3 | 0.00 | 0.00 | 0.00 | 42 | 998.8 |
| 20260505014504 | 16 | 268 | 8.0 | 19.3 | 0.00 | 0.00 | 0.00 | 41 | 998.6 |
| 20260505014004 | 16 | 263 | 8.0 | 19.3 | 0.00 | 0.00 | 0.00 | 41 | 998.5 |
| 20260505013504 | 16 | 261 | 8.0 | 16.1 | 0.00 | 0.00 | 0.00 | 41 | 998.5 |
| 20260505013025 | 16 | 260 | 8.0 | 17.7 | 0.00 | 0.00 | 0.00 | 40 | 998.5 |
| 20260505012525 | 17 | 256 | 8.0 | 19.3 | 0.00 | 0.00 | 0.00 | 40 | 998.6 |
| 20260505012004 | 17 | 254 | 9.7 | 19.3 | 0.00 | 0.00 | 0.00 | 39 | 998.4 |
| 20260505011504 | 17 | 263 | 9.7 | 24.1 | 0.00 | 0.00 | 0.00 | 38 | 998.2 |
| 20260505011004 | 17 | 267 | 8.0 | 24.1 | 0.00 | 0.00 | 0.00 | 38 | 998.1 |
| 20260505010504 | 17 | 263 | 6.4 | 19.3 | 0.00 | 0.00 | 0.00 | 37 | 997.8 |
| 20260505010025 | 17 | 278 | 8.0 | 19.3 | 0.00 | 0.00 | 0.00 | 37 | 997.6 |
| 20260505005504 | 18 | 278 | 9.7 | 20.9 | 0.00 | 0.00 | 0.00 | 37 | 997.6 |
| 20260505005004 | 18 | 272 | 9.7 | 24.1 | 0.00 | 0.00 | 0.00 | 36 | 997.5 |
| 20260505004504 | 18 | 270 | 9.7 | 24.1 | 0.00 | 0.00 | 0.00 | 36 | 997.4 |
| 20260505004004 | 18 | 267 | 11.3 | 22.5 | 0.00 | 0.00 | 0.00 | 37 | 997.3 |
| 20260505003504 | 19 | 269 | 9.7 | 24.1 | 0.00 | 0.00 | 0.00 | 36 | 997.3 |
| 20260505003004 | 19 | 272 | 9.7 | 24.1 | 0.00 | 0.00 | 0.00 | 37 | 997.3 |
| 20260505002504 | 20 | 272 | 9.7 | 20.9 | 0.00 | 0.00 | 0.00 | 36 | 997.1 |
| 20260505002004 | 20 | 273 | 9.7 | 25.7 | 0.00 | 0.00 | 0.00 | 36 | 997.1 |
| 20260505001504 | 20 | 269 | 9.7 | 25.7 | 0.00 | 0.00 | 0.00 | 35 | 997.1 |
| 20260505001004 | 20 | 274 | 9.7 | 24.1 | 0.00 | 0.00 | 0.00 | 35 | 997.0 |
| 20260505000504 | 20 | 282 | 8.0 | 20.9 | 0.00 | 0.00 | 0.00 | 35 | 996.9 |
| 20260505000006 | 20 | 279 | 8.0 | 19.3 | 0.00 | 0.00 | 0.00 | 35 | 996.8 |
| 20260504235525 | 20 | 278 | 6.4 | 19.3 | 0.00 | 0.00 | 0.00 | 34 | 996.7 |
| 20260504235004 | 21 | 280 | 6.4 | 19.3 | 0.00 | 0.00 | 0.00 | 33 | 996.6 |
| 20260504234504 | 21 | 277 | 8.0 | 24.1 | 0.00 | 0.00 | 0.00 | 32 | 996.5 |
| 20260504234004 | 22 | 280 | 9.7 | 25.7 | 0.00 | 0.00 | 0.00 | 33 | 996.4 |
| 20260504233504 | 22 | 270 | 11.3 | 25.7 | 0.00 | 0.00 | 0.00 | 35 | 996.4 |
| 20260504233005 | 22 | 274 | 12.9 | 30.6 | 0.00 | 0.00 | 0.00 | 35 | 996.3 |
| 20260504232504 | 22 | 281 | 14.5 | 30.6 | 0.00 | 0.00 | 0.00 | 35 | 996.2 |
| 20260504232004 | 22 | 271 | 12.9 | 32.2 | 0.00 | 0.00 | 0.00 | 35 | 996.1 |
| 20260504231504 | 22 | 274 | 12.9 | 32.2 | 0.00 | 0.00 | 0.00 | 36 | 996.2 |
| 20260504231004 | 23 | 281 | 14.5 | 30.6 | 0.00 | 0.00 | 0.00 | 36 | 996.2 |
| 20260504230507 | 23 | 270 | 12.9 | 32.2 | 0.00 | 0.00 | 0.00 | 36 | 996.0 |
| 20260504230005 | 23 | 259 | 12.9 | 32.2 | 0.00 | 0.00 | 0.00 | 36 | 996.1 |
| 20260504225504 | 23 | 269 | 12.9 | 33.8 | 0.00 | 0.00 | 0.00 | 36 | 996.1 |
| 20260504225004 | 23 | 272 | 12.9 | 33.8 | 0.00 | 0.00 | 0.00 | 36 | 996.0 |
| 20260504224504 | 23 | 270 | 12.9 | 30.6 | 0.00 | 0.00 | 0.00 | 37 | 996.0 |
| 20260504224004 | 23 | 279 | 12.9 | 30.6 | 0.00 | 0.00 | 0.00 | 37 | 995.9 |
| 20260504223507 | 23 | 287 | 11.3 | 29.0 | 0.00 | 0.00 | 0.00 | 36 | 995.8 |
| 20260504223004 | 24 | 278 | 11.3 | 25.7 | 0.00 | 0.00 | 0.00 | 36 | 995.8 |
| 20260504222504 | 24 | 268 | 9.7 | 24.1 | 0.00 | 0.00 | 0.00 | 35 | 995.6 |
| 20260504222025 | 24 | 255 | 9.7 | 22.5 | 0.00 | 0.00 | 0.00 | 33 | 995.5 |
| 20260504221526 | 24 | 246 | 8.0 | 22.5 | 0.00 | 0.00 | 0.00 | 32 | 995.3 |
| 20260504221004 | 25 | 231 | 6.4 | 19.3 | 0.00 | 0.00 | 0.00 | 33 | 995.2 |
| 20260504220525 | 25 | 212 | 8.0 | 19.3 | 0.00 | 0.00 | 0.00 | 34 | 995.3 |
| 20260504220004 | 25 | 221 | 9.7 | 22.5 | 0.00 | 0.00 | 0.00 | 33 | 995.3 |
| 20260504215504 | 25 | 229 | 11.3 | 29.0 | 0.00 | 0.00 | 0.00 | 31 | 995.3 |
| 20260504215008 | 25 | 226 | 11.3 | 29.0 | 0.00 | 0.00 | 0.00 | 30 | 995.3 |
| 20260504214504 | 25 | 219 | 11.3 | 19.3 | 0.00 | 0.00 | 0.00 | 31 | 995.3 |
| 20260504214004 | 25 | 216 | 9.7 | 24.1 | 0.00 | 0.00 | 0.00 | 30 | 995.2 |
| 20260504213505 | 25 | 222 | 9.7 | 24.1 | 0.00 | 0.00 | 0.00 | 31 | 995.2 |
| 20260504213004 | 25 | 226 | 9.7 | 24.1 | 0.00 | 0.00 | 0.00 | 31 | 995.3 |
| 20260504212504 | 25 | 212 | 9.7 | 19.3 | 0.00 | 0.00 | 0.00 | 31 | 995.4 |
| 20260504212004 | 25 | 205 | 11.3 | 20.9 | 0.00 | 0.00 | 0.00 | 31 | 995.3 |
| 20260504211525 | 25 | 207 | 9.7 | 20.9 | 0.00 | 0.00 | 0.00 | 30 | 995.3 |
| 20260504211025 | 25 | 221 | 9.7 | 25.7 | 0.00 | 0.00 | 0.00 | 32 | 995.4 |
| 20260504210525 | 25 | 215 | 11.3 | 25.7 | 0.00 | 0.00 | 0.00 | 32 | 995.5 |
| 20260504210011 | 25 | 215 | 11.3 | 25.7 | 0.00 | 0.00 | 0.00 | 32 | 995.6 |
| 20260504205504 | 25 | 226 | 11.3 | 29.0 | 0.00 | 0.00 | 0.00 | 33 | 995.7 |
| 20260504205004 | 24 | 217 | 12.9 | 29.0 | 0.00 | 0.00 | 0.00 | 32 | 995.7 |
| 20260504204504 | 25 | 215 | 12.9 | 25.7 | 0.00 | 0.00 | 0.00 | 31 | 995.8 |
| 20260504204004 | 25 | 219 | 11.3 | 24.1 | 0.00 | 0.00 | 0.00 | 32 | 995.8 |
| 20260504203505 | 25 | 209 | 11.3 | 30.6 | 0.00 | 0.00 | 0.00 | 34 | 995.7 |
| 20260504203025 | 25 | 206 | 12.9 | 30.6 | 0.00 | 0.00 | 0.00 | 33 | 995.8 |
| 20260504202504 | 25 | 223 | 11.3 | 32.2 | 0.00 | 0.00 | 0.00 | 32 | 995.9 |
| 20260504202004 | 25 | 215 | 11.3 | 32.2 | 0.00 | 0.00 | 0.00 | 32 | 996.0 |
| 20260504201504 | 25 | 214 | 11.3 | 30.6 | 0.00 | 0.00 | 0.00 | 32 | 996.0 |
| 20260504201004 | 25 | 229 | 11.3 | 25.7 | 0.00 | 0.00 | 0.00 | 33 | 996.0 |
| 20260504200525 | 25 | 225 | 11.3 | 29.0 | 0.00 | 0.00 | 0.00 | 36 | 996.1 |
| 20260504200025 | 24 | 218 | 11.3 | 29.0 | 0.00 | 0.00 | 0.00 | 32 | 996.2 |
| 20260504195525 | 24 | 214 | 11.3 | 29.0 | 0.00 | 0.00 | 0.00 | 34 | 996.1 |
| 20260504195011 | 24 | 217 | 12.9 | 25.7 | 0.00 | 0.00 | 0.00 | 34 | 996.2 |
| 20260504194504 | 24 | 221 | 11.3 | 25.7 | 0.00 | 0.00 | 0.00 | 33 | 996.5 |
| 20260504194004 | 24 | 219 | 9.7 | 20.9 | 0.00 | 0.00 | 0.00 | 34 | 996.4 |
| 20260504193525 | 24 | 211 | 8.0 | 22.5 | 0.00 | 0.00 | 0.00 | 34 | 996.4 |
| 20260504193004 | 24 | 207 | 11.3 | 25.7 | 0.00 | 0.00 | 0.00 | 34 | 996.3 |
| 20260504192504 | 24 | 203 | 12.9 | 25.7 | 0.00 | 0.00 | 0.00 | 34 | 996.4 |
| 20260504192004 | 24 | 203 | 11.3 | 22.5 | 0.00 | 0.00 | 0.00 | 33 | 996.4 |
| 20260504191528 | 24 | 203 | 11.3 | 22.5 | 0.00 | 0.00 | 0.00 | 33 | 996.4 |
| 20260504191004 | 24 | 210 | 11.3 | 24.1 | 0.00 | 0.00 | 0.00 | 33 | 996.5 |
| 20260504190504 | 24 | 216 | 11.3 | 24.1 | 0.00 | 0.00 | 0.00 | 31 | 996.5 |
| 20260504190011 | 24 | 206 | 9.7 | 22.5 | 0.00 | 0.00 | 0.00 | 34 | 996.4 |
| 20260504185504 | 24 | 199 | 9.7 | 22.5 | 0.00 | 0.00 | 0.00 | 32 | 996.5 |
| 20260504185004 | 24 | 209 | 9.7 | 20.9 | 0.00 | 0.00 | 0.00 | 32 | 996.5 |
| 20260504184504 | 24 | 224 | 11.3 | 24.1 | 0.00 | 0.00 | 0.00 | 32 | 996.6 |
| 20260504184004 | 24 | 227 | 9.7 | 24.1 | 0.00 | 0.00 | 0.00 | 32 | 996.6 |
| 20260504183504 | 24 | 222 | 8.0 | 20.9 | 0.00 | 0.00 | 0.00 | 31 | 996.5 |
| 20260504183004 | 24 | 229 | 9.7 | 25.7 | 0.00 | 0.00 | 0.00 | 32 | 996.6 |
| 20260504182525 | 24 | 218 | 11.3 | 32.2 | 0.00 | 0.00 | 0.00 | 32 | 996.7 |
| 20260504182004 | 25 | 216 | 11.3 | 33.8 | 0.00 | 0.00 | 0.00 | 30 | 996.6 |
| 20260504181525 | 25 | 232 | 11.3 | 33.8 | 0.00 | 0.00 | 0.00 | 31 | 996.7 |
| 20260504181005 | 25 | 225 | 11.3 | 30.6 | 0.00 | 0.00 | 0.00 | 32 | 996.7 |
| 20260504180505 | 24 | 215 | 12.9 | 33.8 | 0.00 | 0.00 | 0.00 | 32 | 996.7 |
| 20260504180028 | 24 | 210 | 12.9 | 33.8 | 0.00 | 0.00 | 0.00 | 32 | 996.7 |
| 20260504175507 | 24 | 204 | 11.3 | 32.2 | 0.00 | 0.00 | 0.00 | 31 | 996.7 |
| 20260504175004 | 24 | 209 | 11.3 | 25.7 | 0.00 | 0.00 | 0.00 | 32 | 996.6 |
| 20260504174504 | 24 | 203 | 12.9 | 25.7 | 0.00 | 0.00 | 0.00 | 32 | 996.7 |
| 20260504174026 | 23 | 200 | 12.9 | 25.7 | 0.00 | 0.00 | 0.00 | 32 | 996.6 |
| 20260504173504 | 23 | 204 | 12.9 | 24.1 | 0.00 | 0.00 | 0.00 | 31 | 996.7 |
| 20260504173025 | 23 | 202 | 12.9 | 30.6 | 0.00 | 0.00 | 0.00 | 31 | 996.9 |
| 20260504172504 | 23 | 199 | 12.9 | 30.6 | 0.00 | 0.00 | 0.00 | 31 | 996.8 |
| 20260504172004 | 23 | 197 | 14.5 | 33.8 | 0.00 | 0.00 | 0.00 | 31 | 997.0 |
| 20260504171504 | 23 | 198 | 12.9 | 33.8 | 0.00 | 0.00 | 0.00 | 30 | 997.0 |
| 20260504171004 | 23 | 199 | 12.9 | 25.7 | 0.00 | 0.00 | 0.00 | 33 | 997.1 |
| 20260504170504 | 23 | 199 | 14.5 | 29.0 | 0.00 | 0.00 | 0.00 | 31 | 997.2 |
| 20260504151004 | 20 | 195 | 11.3 | 22.5 | 0.00 | 0.00 | 0.00 | 38 | 998.8 |
| 20260504150504 | 20 | 194 | 12.9 | 25.7 | 0.00 | 0.00 | 0.00 | 40 | 998.9 |
| 20260504141025 | 17 | 191 | 9.7 | 17.7 | 0.00 | 0.00 | 0.00 | 46 | 999.6 |
| 20260504140504 | 17 | 191 | 9.7 | 17.7 | 0.00 | 0.00 | 0.00 | 48 | 999.7 |
| 20260504130507 | 12 | 187 | 8.0 | 14.5 | 0.00 | 0.00 | 0.00 | 62 | 1000.7 |